Temp
17 17 17 18 18 18 18 17 17 16 17 17 17 18 18 18 18 18 18 18 18 18 18 18 18 18 18 18 18 18 18 19 18 18 18 17 16 16 17 17 17 17 18 18 18 19 19 19 19 19 20 20 20 20 19 19 18 19 21 20 20 21 19 17 17 16 16 15 12 11 12 12 10 8 8 9 9 8 7 6 6 6 6 6 5 5 4 4
18 18 18 18 18 18 18 18 18 17 17 17 17 18 18 18 18 18 18 18 18 18 18 18 18 18 18 18 18 18 18 18 19 18 17 16 16 17 17 17 17 18 18 18 18 19 20 20 19 20 21 21 19 19 19 18 18 19 20 20 20 19 15 12 12 13 14 15 12 11 11 12 11 9 9 10 10 9 9 7 6 7 5 5 5 4 4 4
18 18 18 19 19 18 18 18 18 18 18 18 18 18 18 18 18 18 18 18 18 18 18 18 18 18 18 18 18 18 18 18 19 18 17 16 17 17 17 18 18 18 18 18 18 18 20 20 19 20 21 21 19 19 19 17 17 17 18 21 18 14 12 10 10 11 12 14 12 10 10 10 9 8 9 10 10 9 10 9 8 8 6 5 5 4 4 4
18 18 19 19 19 19 18 18 18 18 18 18 18 18 18 18 18 18 18 18 18 18 18 18 18 18 18 18 18 18 18 19 19 17 16 16 17 17 17 18 18 18 18 18 19 18 18 19 19 20 21 20 19 19 19 16 16 16 16 18 14 12 13 10 9 10 11 13 12 10 10 9 8 8 9 11 11 11 11 9 8 8 6 5 5 4 4 4
18 19 19 19 19 19 19 19 19 18 18 18 18 18 18 18 18 18 18 18 18 18 18 18 18 18 18 18 18 18 18 19 18 16 16 16 17 17 18 18 18 18 18 18 18 18 18 19 19 20 21 20 19 19 17 14 15 15 12 11 10 11 12 9 8 9 10 11 11 10 11 10 7 8 8 10 13 12 9 7 6 7 7 5 5 4 4 4
18 19 19 19 19 19 19 19 19 18 18 18 18 18 18 18 18 18 18 18 18 18 18 18 18 18 19 18 18 18 18 18 17 16 16 16 17 17 18 18 18 18 18 18 18 18 19 19 20 20 20 19 18 18 16 13 14 16 12 9 9 10 10 9 8 8 9 11 11 10 10 8 8 8 7 7 8 6 5 5 5 5 5 4 4 4 4 4
18 19 19 19 19 19 19 19 19 19 19 18 19 18 18 18 18 18 18 18 18 18 18 18 18 18 18 19 18 18 19 18 16 16 16 17 17 17 18 18 18 18 18 18 18 19 19 19 20 20 20 18 17 16 14 13 14 16 12 9 9 9 8 8 7 7 8 10 9 9 8 8 9 8 6 5 4 3 3 4 4 4 3 3 4 4 5 4
19 19 19 19 19 19 19 19 19 19 19 18 19 19 18 18 18 18 18 18 18 18 18 18 18 18 18 19 19 19 18 17 16 16 17 17 17 17 18 18 18 18 18 18 18 19 19 20 20 19 19 17 16 15 13 14 15 13 11 8 8 8 7 7 7 8 8 8 7 8 8 7 7 7 6 5 3 2 3 3 3 3 3 3 4 4 4 4
19 19 19 19 19 19 19 18 18 19 19 19 19 18 18 18 18 18 18 18 18 18 18 18 18 18 19 18 19 19 17 16 15 16 17 17 17 17 18 18 18 18 18 17 17 19 19 20 19 19 18 15 15 13 11 15 16 11 9 9 8 8 8 8 8 8 8 8 8 9 8 6 5 6 8 5 3 3 3 3 3 3 3 3 4 4 4 4
19 19 19 19 19 19 18 18 18 18 19 19 19 19 18 18 18 18 18 18 18 18 18 18 19 19 19 19 19 19 16 15 15 16 17 17 17 18 18 18 18 18 18 17 16 17 18 19 18 18 17 14 13 11 10 13 13 9 9 9 8 8 8 9 9 8 8 8 8 9 8 7 6 6 10 6 2 3 3 3 3 3 4 3 3 4 3 3
19 19 19 19 19 19 18 18 18 18 19 19 19 19 19 18 18 18 18 18 18 18 18 18 19 19 19 19 19 18 16 15 15 16 17 17 18 18 17 18 18 18 18 17 15 15 15 16 17 18 18 15 12 10 9 10 10 9 10 10 9 10 9 9 10 9 9 9 8 9 9 7 6 8 10 6 3 3 3 3 3 3 4 3 3 4 3 3
19 19 19 19 19 18 18 18 18 19 19 19 19 19 18 18 18 18 18 18 18 18 18 19 19 19 19 19 18 16 16 16 15 16 16 17 17 17 17 17 18 18 18 17 14 14 15 15 17 17 16 15 12 11 10 9 11 11 12 12 10 11 11 10 10 9 10 10 8 9 10 10 9 9 8 5 3 3 3 4 3 3 4 4 3 4 4 3
18 19 19 19 19 18 18 18 18 19 19 19 19 18 18 18 18 18 18 18 19 18 19 19 19 19 19 18 16 16 16 15 16 17 17 16 16 16 16 17 17 17 18 17 14 14 15 16 17 15 13 13 11 11 11 10 11 12 12 13 12 13 12 10 10 9 10 9 7 9 14 15 13 9 5 4 4 3 3 4 4 4 4 4 4 3 4 4
18 19 18 18 18 18 18 18 18 18 19 19 18 19 19 19 19 19 19 19 18 18 19 19 19 19 19 17 16 16 16 16 16 17 17 16 16 16 16 16 17 16 17 16 14 15 15 16 16 13 12 12 11 11 12 11 12 12 13 14 14 15 14 10 9 10 10 9 7 9 14 17 14 8 4 4 4 3 4 5 5 5 4 4 4 3 4 4
18 18 18 18 18 18 18 18 18 18 19 19 18 19 19 19 19 19 19 19 18 18 19 19 19 19 18 17 17 16 16 16 16 15 15 16 16 17 16 16 16 16 16 15 15 15 15 15 15 13 11 11 12 13 13 13 13 13 14 15 14 15 14 11 9 9 10 9 8 10 14 16 14 8 4 3 4 4 5 6 5 5 4 4 4 4 4 4
18 18 18 18 18 18 18 18 18 19 19 19 19 19 19 19 19 18 18 18 19 19 19 19 18 19 19 17 17 17 16 16 15 14 15 15 16 16 16 16 16 16 16 15 15 15 15 15 13 12 12 12 14 15 15 15 14 13 15 16 14 15 15 12 9 8 9 9 9 10 12 15 13 7 4 3 4 4 5 6 6 5 5 4 5 4 4 5
18 18 18 18 18 18 18 18 18 18 19 19 19 19 19 19 18 19 19 18 19 19 19 18 18 18 18 17 17 16 15 14 15 14 15 15 15 16 17 16 15 16 16 16 17 16 15 14 12 13 14 13 14 15 16 16 16 15 14 15 14 13 14 14 11 8 8 9 10 10 10 13 12 7 5 4 4 4 5 6 6 6 5 5 5 5 5 5
18 18 18 18 18 18 18 18 18 18 19 19 19 19 19 18 18 19 18 19 19 19 20 18 18 19 17 16 16 15 14 14 14 14 14 15 15 15 16 15 14 15 17 17 16 15 15 14 13 15 14 14 14 15 17 16 16 16 15 15 14 13 13 14 12 9 8 8 10 10 10 12 13 9 6 5 4 4 5 6 7 6 6 6 5 5 5 5
18 18 18 18 18 18 18 18 18 19 18 18 19 19 19 19 19 19 17 18 18 18 18 16 16 17 16 15 14 14 14 14 14 14 14 14 15 15 15 14 14 16 17 17 16 13 14 15 15 16 15 14 13 12 14 13 13 15 15 15 16 15 14 13 11 8 7 9 10 11 11 12 14 12 8 6 5 4 5 6 6 6 6 6 6 5 5 5
18 18 18 18 18 18 18 18 19 19 18 19 19 19 19 19 19 17 15 15 14 13 15 14 13 15 15 14 14 14 14 15 15 14 13 13 14 15 15 14 16 16 15 14 14 11 12 15 15 14 13 11 10 9 9 9 9 11 13 14 14 15 14 11 9 7 6 9 11 11 11 12 13 13 11 8 5 4 5 6 6 6 6 6 6 5 5 5
19 19 18 18 18 18 18 19 19 19 19 19 19 19 19 19 19 17 14 13 12 10 13 13 12 14 14 13 12 12 14 15 16 15 14 13 13 15 16 15 17 17 12 9 11 11 13 15 13 10 9 8 8 7 7 8 9 11 13 14 14 14 14 10 8 8 6 9 12 10 10 11 12 13 13 9 6 6 6 6 6 6 6 6 6 6 5 5
19 19 19 18 18 18 19 19 19 19 19 19 19 18 17 17 18 17 16 15 13 12 13 13 12 13 13 13 12 11 13 15 16 16 14 13 15 16 15 15 16 15 11 9 12 14 14 13 11 8 7 7 7 7 8 9 10 12 13 14 14 13 13 10 8 7 7 9 12 10 9 12 13 13 13 9 7 7 7 7 7 7 7 6 6 6 5 5
19 19 19 19 18 18 19 19 18 18 19 19 19 17 16 17 17 17 17 17 15 13 13 13 13 13 13 14 13 12 14 13 14 14 12 13 14 13 13 14 13 12 12 13 15 16 15 12 9 7 6 8 9 8 8 11 12 13 13 14 14 12 12 13 10 7 7 8 9 9 9 11 13 14 14 11 9 9 8 7 7 7 7 7 7 6 6 5
19 19 19 19 18 19 18 18 18 18 19 19 18 17 17 17 17 17 17 15 15 14 13 12 12 13 13 13 12 13 14 11 11 13 11 11 12 11 12 12 12 12 11 11 13 14 12 9 6 6 7 8 10 10 10 13 14 12 12 13 13 11 11 12 10 8 9 7 7 9 12 14 15 14 14 12 8 7 7 6 6 6 6 6 6 6 6 6
19 19 19 18 19 19 18 18 18 18 19 19 18 18 17 18 17 17 17 16 16 15 13 12 12 13 13 12 12 12 12 11 11 12 10 10 11 11 11 9 11 13 10 10 13 13 10 7 5 7 8 8 11 12 10 11 14 13 11 10 10 11 10 10 10 10 12 11 8 9 13 16 15 14 14 12 8 8 8 7 7 7 6 6 5 6 6 6
19 19 18 18 18 18 18 18 18 18 19 18 18 17 17 17 17 17 18 17 17 15 14 14 14 14 13 12 11 10 12 13 11 10 10 9 9 10 11 10 11 12 10 9 11 11 10 6 6 8 10 10 11 12 9 9 13 14 10 7 8 9 10 10 10 11 13 13 9 8 12 14 15 15 15 12 10 10 9 8 8 8 7 7 6 6 6 6
18 18 18 18 18 18 19 19 18 18 18 18 18 17 17 17 17 17 17 18 17 15 14 15 15 14 14 11 9 11 14 13 11 10 10 9 9 10 13 12 11 11 8 9 12 11 9 8 8 9 10 12 12 12 9 8 13 13 8 6 8 9 10 10 10 11 12 12 10 9 11 11 13 14 12 10 10 11 11 10 9 9 8 8 7 7 7 7
18 18 18 17 17 18 18 18 18 17 18 18 17 17 17 17 17 17 18 18 16 14 13 14 14 14 13 11 10 12 12 11 12 13 9 9 10 11 13 11 10 10 6 9 14 11 8 10 10 9 11 12 12 10 8 7 11 11 6 6 8 8 9 9 10 11 10 10 11 11 10 11 13 14 10 8 11 13 13 13 12 11 10 9 9 8 8 7
17 17 17 17 17 18 18 18 18 17 17 18 17 17 17 17 17 18 18 17 15 13 13 14 14 13 11 12 11 11 10 10 12 12 9 10 10 11 12 9 9 10 7 9 13 10 7 8 7 8 12 12 9 7 6 7 9 8 5 6 7 7 9 9 10 11 10 10 12 11 10 11 14 16 13 11 12 14 15 15 14 13 12 10 10 9 9 8
17 17 17 17 17 17 18 17 17 17 17 17 17 17 16 17 18 18 18 17 15 13 12 13 14 11 10 13 13 11 11 10 9 9 10 11 11 10 9 7 8 10 10 10 10 9 6 4 4 7 9 9 7 5 4 5 7 6 6 8 9 8 9 9 10 11 10 11 12 9 9 10 12 16 16 14 14 14 15 16 15 14 13 12 11 10 9 9
17 16 16 17 17 17 17 16 16 16 16 16 17 16 17 18 17 18 17 15 14 14 13 12 11 9 9 12 13 11 10 10 8 9 11 11 11 11 10 10 11 12 13 12 10 9 7 7 7 6 6 6 7 6 5 4 5 6 9 11 11 11 11 11 11 10 11 13 11 7 7 8 11 14 16 16 14 12 12 13 14 14 14 12 11 10 10 9
16 16 16 16 16 17 17 16 15 15 16 16 16 17 18 17 17 18 16 14 14 14 12 11 10 9 9 10 11 9 10 10 9 8 9 9 10 10 9 10 11 13 15 13 12 11 10 10 8 6 5 6 8 10 8 6 6 8 11 12 12 13 12 12 12 11 12 12 9 6 7 8 11 14 15 15 14 13 12 12 13 13 13 13 11 10 8 7
15 16 16 16 16 16 16 15 15 15 16 16 17 18 18 18 18 16 14 15 14 11 10 10 9 9 9 11 11 9 9 10 9 8 7 8 10 9 7 6 7 11 13 12 12 13 13 10 8 8 8 6 8 12 12 10 10 10 11 12 13 13 11 11 12 10 11 12 8 6 7 9 11 14 14 14 15 15 13 12 12 11 11 11 11 9 7 6
15 15 16 15 15 15 14 14 15 15 16 17 18 18 17 18 17 12 13 14 11 9 9 8 9 10 10 11 10 8 10 10 8 8 9 10 12 11 9 7 6 9 11 11 11 12 13 13 10 10 9 7 7 9 10 11 11 10 10 11 12 12 12 11 12 11 11 11 9 6 8 10 13 14 13 13 13 12 11 10 9 9 9 8 8 8 7 6
15 15 15 14 14 14 14 14 15 15 17 18 18 18 18 18 16 13 14 13 10 10 9 7 9 12 12 11 9 7 9 11 8 9 11 11 12 12 11 9 7 8 11 12 10 9 12 14 10 7 6 6 8 7 6 9 11 9 8 10 11 11 12 10 8 8 8 8 8 8 9 12 13 14 13 12 12 11 11 10 9 9 9 7 7 7 7 6
16 15 15 15 14 14 14 15 16 16 17 18 18 18 17 16 14 13 12 10 10 11 10 10 11 14 14 12 10 8 8 9 9 10 11 10 10 10 9 8 7 7 9 12 10 9 13 13 8 6 7 6 6 6 5 8 11 9 9 11 9 8 10 10 6 5 5 7 10 10 10 12 13 14 14 13 12 12 12 12 11 10 9 8 8 8 8 7
16 16 15 14 14 15 15 16 17 17 18 18 18 17 14 11 10 10 8 7 9 9 12 14 13 13 14 13 12 10 9 9 9 11 12 11 10 9 8 7 6 5 7 8 9 9 11 13 9 6 8 6 3 5 6 5 8 10 10 10 8 6 9 10 8 7 7 8 10 10 10 11 12 13 14 13 13 13 13 14 13 11 10 10 10 10 9 7
16 15 15 14 15 15 16 17 17 18 18 17 16 13 10 9 8 7 6 6 8 9 12 15 13 11 12 13 13 10 9 12 11 11 12 12 11 10 8 8 6 4 4 5 9 9 8 12 10 5 7 7 4 6 8 6 5 8 9 8 8 9 10 9 9 9 9 9 9 9 8 9 11 12 13 14 14 14 14 14 13 13 13 13 12 12 10 8
16 16 16 14 15 16 16 17 17 17 18 17 16 13 10 9 7 5 5 6 8 10 13 14 11 10 10 11 13 10 8 11 12 11 12 12 12 9 8 9 6 4 3 4 8 9 7 12 12 6 6 7 7 8 10 9 6 6 7 7 7 8 9 9 8 8 9 9 9 9 8 10 13 13 13 14 14 14 14 13 13 14 13 12 11 11 10 8
15 17 16 14 15 16 16 17 17 17 18 15 13 12 9 8 7 4 3 5 8 10 11 12 11 11 11 9 10 10 8 9 10 11 11 10 11 10 8 8 7 4 3 3 6 8 7 10 12 9 7 8 10 10 11 12 9 7 8 8 7 6 6 7 7 6 8 9 8 8 8 12 14 14 14 14 14 14 13 13 13 12 11 10 9 9 8 8
15 17 16 14 15 15 16 17 14 12 14 11 10 9 8 8 7 4 2 2 5 7 8 10 10 11 12 10 10 10 8 8 8 9 11 10 11 12 8 7 7 5 4 6 7 7 8 10 11 10 9 11 11 8 6 8 8 9 10 9 8 8 7 8 8 5 5 7 8 7 8 11 13 13 13 13 13 13 13 12 12 11 10 8 8 8 8 8
16 17 15 14 16 16 17 15 8 6 10 11 9 8 7 8 8 6 4 3 5 7 7 8 9 9 10 11 10 9 9 9 8 9 11 10 11 11 8 6 6 6 7 8 6 5 7 8 9 10 11 11 8 3 2 3 5 7 8 8 9 8 8 10 10 6 5 4 5 5 6 10 13 13 13 13 13 12 11 10 9 9 8 8 8 9 9 8
16 16 15 14 15 16 17 15 9 7 9 8 6 6 6 7 7 6 5 5 6 7 7 8 8 9 10 9 9 8 9 10 10 10 10 9 9 8 5 4 5 6 7 7 6 5 6 8 9 10 12 10 5 2 2 2 4 6 7 6 7 7 8 8 7 7 6 6 5 5 5 9 12 12 12 11 10 10 8 7 7 7 8 8 9 9 9 9
14 14 13 14 15 16 17 17 14 11 8 7 7 7 6 7 7 7 7 8 8 8 9 9 8 9 8 7 8 9 9 11 11 10 9 9 8 4 2 3 5 6 7 7 7 7 8 10 10 10 12 12 9 8 7 5 5 8 8 6 5 5 4 4 4 4 6 7 8 7 7 10 11 10 10 10 9 9 9 9 9 9 9 9 9 9 9 9
14 14 13 14 14 14 14 13 14 12 8 8 9 9 8 8 7 7 8 8 7 7 9 9 7 7 7 6 7 8 7 10 11 9 7 7 7 3 1 2 3 5 6 4 5 7 8 9 9 10 12 12 13 13 12 10 8 7 7 4 4 4 4 5 6 6 6 7 8 8 9 11 12 12 12 11 10 11 11 11 11 10 10 9 9 9 9 8
16 17 16 15 13 11 9 7 9 12 9 10 12 9 9 10 7 5 7 8 7 6 8 7 6 7 7 7 8 8 7 8 8 7 7 7 7 4 1 1 2 3 3 3 3 6 6 6 7 10 11 12 14 13 10 9 9 8 7 5 4 3 4 6 7 7 7 7 7 8 9 10 11 12 12 12 11 12 11 11 11 11 10 10 9 9 9 8
17 17 15 16 14 12 10 8 9 11 10 12 14 11 9 11 9 7 6 7 6 6 7 7 7 8 9 8 10 10 8 7 6 6 7 7 7 4 -0 -1 1 2 2 3 3 5 6 6 6 8 9 10 11 11 8 6 8 8 8 7 6 4 3 4 6 7 9 7 7 9 9 8 9 11 11 11 11 11 11 11 11 10 10 10 9 9 8 8
14 15 10 11 14 15 13 12 10 10 10 11 11 10 10 11 10 10 9 6 5 6 8 9 7 9 10 9 11 11 8 8 8 7 7 6 6 5 3 1 2 2 3 3 3 4 6 7 5 5 6 7 7 8 7 7 7 7 7 7 6 4 3 4 5 7 8 7 8 10 10 9 10 11 11 11 11 11 10 10 10 9 9 9 8 8 8 8
11 12 7 6 11 12 9 8 8 10 11 11 10 10 11 11 11 11 8 7 7 6 8 11 10 9 9 9 11 12 10 11 12 10 8 7 6 6 7 5 3 2 3 4 3 3 6 7 4 2 4 6 6 6 6 6 6 6 5 6 6 5 4 4 5 6 7 7 8 9 9 8 9 10 10 10 10 10 9 9 9 8 8 8 8 8 8 8
13 14 11 9 9 7 5 6 9 12 12 10 12 12 9 11 13 10 8 9 12 9 7 10 12 9 8 8 9 11 12 13 14 12 9 9 7 6 8 9 5 2 2 4 3 2 5 6 4 2 5 7 6 5 4 4 4 4 5 6 6 5 5 4 4 5 5 6 6 7 6 6 8 9 9 9 9 8 8 8 8 8 9 8 8 8 8 8
12 12 11 14 13 8 8 8 9 13 14 11 13 13 10 12 12 11 11 10 12 11 8 10 11 8 6 6 8 10 11 11 12 11 9 9 9 8 8 9 6 3 3 3 3 2 4 5 3 3 6 8 5 4 4 5 5 6 7 8 7 6 5 5 5 5 4 5 5 5 4 5 7 9 9 8 8 8 8 8 9 9 9 9 8 8 8 7
10 9 10 15 15 9 8 10 9 13 15 13 13 12 12 12 10 10 14 11 8 9 8 9 11 9 7 7 8 9 10 9 9 8 7 7 7 6 7 7 6 6 4 2 2 2 2 4 5 4 7 8 5 4 6 6 8 10 11 12 11 9 7 6 5 5 5 5 5 5 6 8 9 10 9 9 9 9 9 10 10 10 9 8 8 8 7 7
Height
827 826 826 827 826 825 825 825 825 825 825 825 825 825 826 826 826 827 827 827 827 827 827 827 827 827 827 827 827 828 828 828 828 828 828 830 831 830 828 827 826 826 825 825 824 823 824 824 825 826 826 826 827 828 829 831 832 830 831 835 835 831 836 842 842 846 847 851 861 867 866 864 871 878 879 879 880 883 885 887 888 888 889 889 889 890 892 894
826 826 826 826 825 825 825 825 824 824 824 824 824 824 825 825 826 826 827 827 827 827 827 827 827 827 827 827 827 827 828 828 827 828 829 831 830 828 827 826 825 825 825 825 824 823 823 823 824 825 825 826 828 829 829 832 833 833 834 834 834 834 847 858 856 856 853 851 859 866 866 865 869 874 877 876 878 881 881 886 887 887 890 890 891 892 892 894
826 825 825 824 824 825 824 824 824 824 823 824 823 824 824 824 825 825 826 826 826 827 827 827 827 828 828 827 827 828 828 828 828 829 830 830 828 827 826 824 824 824 824 824 823 823 822 823 824 824 824 826 829 829 829 834 835 838 838 831 838 849 856 864 864 861 857 855 860 867 869 870 873 876 875 873 876 879 875 880 884 883 888 890 891 893 893 894
826 825 824 824 823 823 823 823 823 823 823 823 823 823 823 824 824 825 825 825 826 826 827 827 827 827 828 827 828 829 828 828 830 831 830 829 827 825 824 824 823 823 823 823 822 822 823 823 824 824 824 827 830 830 832 838 837 840 842 840 851 858 856 863 867 864 861 858 861 868 870 872 877 878 875 871 870 872 873 877 880 880 885 888 890 892 893 894
825 824 824 823 823 822 822 822 822 822 821 821 822 822 822 823 823 824 824 825 825 826 826 826 827 827 827 828 829 829 830 832 833 831 830 828 826 824 824 823 823 823 823 822 822 822 823 823 824 824 824 827 830 831 837 843 841 844 856 861 863 860 857 867 870 867 865 862 863 867 867 871 878 878 876 872 864 867 875 880 883 882 884 888 890 891 893 893
825 824 824 823 823 822 821 821 821 820 820 820 820 820 820 821 822 823 824 824 824 825 826 826 826 826 827 828 829 829 831 835 834 830 829 827 825 825 823 823 822 822 822 822 822 822 823 823 824 825 825 829 833 835 841 847 843 843 859 868 867 864 864 869 872 871 869 864 865 867 869 874 876 877 880 879 874 878 884 884 885 886 887 889 890 891 892 893
825 825 824 823 822 821 821 820 819 819 819 819 819 819 819 820 821 821 823 823 824 824 825 825 825 826 826 828 829 829 830 833 832 830 829 827 826 825 823 823 822 822 822 822 822 821 822 823 823 825 826 832 837 840 845 847 843 842 857 869 870 870 870 873 874 874 871 868 871 872 873 876 874 875 881 883 884 887 887 887 888 888 889 890 891 891 891 892
825 825 824 823 822 821 821 819 819 818 818 819 819 819 819 819 820 821 822 822 823 824 825 825 825 826 827 828 829 829 831 833 832 830 829 827 826 825 823 823 822 822 822 821 822 821 822 822 823 825 828 835 838 843 848 845 844 850 861 870 872 874 875 876 875 874 874 874 876 874 875 879 878 879 880 883 886 888 888 888 889 889 890 891 890 891 891 891
825 825 824 823 823 822 821 820 819 818 818 818 818 818 818 819 819 820 821 822 823 824 825 825 826 827 827 828 827 829 834 836 833 831 829 828 827 825 824 823 822 822 822 821 822 821 822 822 823 824 828 839 841 846 852 844 844 857 866 869 873 875 876 875 875 876 876 876 876 874 879 883 884 882 877 882 887 887 889 889 889 890 890 890 890 890 890 891
825 825 824 823 823 822 821 820 819 818 818 817 818 818 818 819 820 821 822 822 823 824 825 826 827 827 827 827 826 831 836 835 833 832 830 828 827 826 824 823 823 822 822 822 822 822 822 821 823 823 827 839 846 852 856 850 852 863 867 869 873 874 876 875 874 877 875 877 877 873 878 881 885 881 870 878 888 887 889 889 889 890 889 889 889 890 890 890
825 825 824 823 822 822 821 820 819 818 818 817 817 817 818 819 820 822 822 823 824 825 825 826 827 827 826 826 828 834 837 835 834 832 830 830 827 826 825 823 823 822 822 822 823 823 822 822 823 824 827 837 848 856 861 860 861 864 863 867 873 871 873 874 873 876 873 875 878 874 877 881 885 878 866 875 885 886 887 887 888 888 887 888 888 889 889 889
826 825 824 824 823 822 821 820 819 819 818 818 817 818 819 820 821 822 823 824 824 825 826 826 826 826 826 827 832 837 837 835 835 832 831 830 828 827 826 824 823 822 822 822 824 824 823 825 824 826 832 838 849 857 862 865 862 861 859 861 870 868 868 872 872 874 872 873 878 876 871 869 872 871 869 878 883 885 887 885 887 887 886 887 887 888 887 887
826 825 825 824 823 822 821 821 820 819 819 818 819 820 820 821 822 823 823 824 825 826 827 826 826 826 826 831 836 837 836 836 834 833 832 831 830 829 827 826 824 823 823 822 824 825 824 825 825 831 838 841 853 857 859 866 861 860 859 856 863 862 862 871 873 873 872 874 880 876 858 844 852 866 875 880 881 884 885 883 884 884 885 885 885 886 885 886
826 825 825 824 824 823 822 822 821 821 820 820 821 821 822 823 824 824 825 826 826 827 827 827 827 826 828 834 838 836 836 836 834 833 832 831 831 830 830 828 826 825 824 824 825 826 826 827 826 834 842 844 853 857 858 862 859 859 859 855 856 852 856 870 874 872 870 874 880 875 855 837 846 866 877 880 880 883 881 880 882 881 883 883 883 884 882 883
826 825 825 825 824 823 823 822 822 822 822 822 823 823 824 824 825 826 826 827 827 828 828 828 828 827 830 835 837 836 836 834 834 834 832 832 831 831 831 829 828 828 827 826 827 828 829 828 829 838 848 849 850 852 854 856 856 859 856 852 855 850 854 868 875 874 869 873 878 873 855 839 846 864 875 879 880 881 879 876 878 879 880 880 881 881 880 880
825 825 825 825 825 824 824 824 823 823 823 824 824 825 826 826 827 827 827 828 827 828 828 828 828 827 831 836 836 835 836 835 835 835 834 833 832 831 832 831 831 829 829 830 830 831 829 830 839 846 850 850 847 845 848 851 853 857 851 848 854 852 852 860 872 878 874 874 875 871 859 842 848 866 875 879 879 880 878 874 875 876 877 878 878 878 878 878
825 825 825 825 825 825 825 825 825 824 824 825 825 826 826 827 828 827 828 828 828 829 828 829 829 828 833 836 836 837 838 838 837 836 834 833 833 832 831 831 832 831 830 830 830 832 832 837 846 848 848 850 848 843 842 845 846 851 852 850 855 856 853 853 865 877 878 875 870 870 867 849 850 868 874 876 878 878 876 871 871 873 874 875 875 875 875 875
825 825 825 825 825 826 826 826 826 825 826 826 827 827 827 828 829 829 829 828 829 828 828 830 829 831 837 839 840 841 840 839 838 836 834 833 833 832 831 831 832 831 830 831 833 835 835 841 845 844 847 848 848 844 840 842 842 843 848 847 850 857 855 851 859 874 878 876 870 867 867 853 847 861 869 873 876 875 872 869 868 869 870 871 872 872 871 871
824 825 825 825 826 826 826 827 827 826 827 827 828 828 828 829 829 829 830 829 832 834 835 838 837 839 844 843 844 843 840 840 838 836 835 834 833 832 832 831 831 831 831 831 836 841 841 841 841 841 845 849 854 856 851 853 852 847 848 846 844 847 851 855 864 877 880 874 868 861 857 850 844 850 860 867 872 872 869 868 867 866 866 867 867 867 867 867
824 824 824 825 826 826 827 827 827 827 828 828 829 829 829 830 832 836 837 836 842 846 845 846 846 845 846 846 845 842 840 840 838 838 836 834 833 832 832 833 831 832 838 842 842 848 848 842 845 849 854 860 867 870 869 869 867 860 853 850 850 847 848 860 871 879 883 871 857 856 856 851 845 843 849 859 867 870 867 865 864 862 862 862 862 862 862 861
824 824 824 825 826 826 827 827 827 828 828 828 829 828 829 830 833 838 843 846 849 850 848 848 848 847 847 847 846 843 842 839 838 838 836 835 834 832 833 834 831 834 849 858 852 849 846 843 855 866 869 873 875 877 876 873 871 864 855 850 852 851 851 864 874 876 883 872 854 859 861 850 844 840 841 853 861 861 859 859 857 856 857 857 857 857 857 858
823 823 824 824 825 826 827 827 827 828 828 828 828 828 829 828 830 832 836 845 851 850 849 849 848 848 848 848 846 845 843 841 839 837 837 836 832 833 837 836 837 843 853 857 849 845 846 852 865 874 877 878 877 878 876 871 868 860 854 851 849 852 855 864 876 878 880 871 853 859 862 845 838 835 834 845 851 848 848 849 849 849 851 851 851 852 853 855
822 823 823 823 825 826 826 827 827 828 828 828 828 828 828 828 831 830 831 840 849 851 850 849 849 849 848 847 847 845 844 848 847 843 842 839 837 842 842 842 846 850 852 850 842 840 846 859 873 879 879 875 872 876 874 864 860 857 853 850 848 858 859 854 867 878 878 874 865 864 861 841 829 827 825 833 840 840 843 844 845 846 845 845 846 847 849 850
822 822 822 823 824 824 826 827 828 828 828 829 828 828 829 830 831 831 833 842 848 850 851 850 850 850 849 849 849 846 846 852 853 849 847 844 845 846 847 851 851 852 857 856 848 847 856 871 880 881 879 874 867 867 868 857 852 858 860 854 852 861 864 858 865 873 871 876 876 865 846 823 815 821 819 827 840 839 839 842 842 842 842 842 844 843 844 844
821 821 821 822 823 824 826 827 828 828 828 829 829 829 830 830 832 831 834 843 847 848 850 850 850 850 851 850 849 850 850 852 854 853 852 850 849 848 852 858 852 852 863 862 853 853 865 879 883 877 875 874 865 861 869 864 850 854 865 867 867 865 867 868 868 865 855 857 870 866 842 814 809 819 817 821 836 835 834 838 836 835 838 839 840 837 838 839
820 820 821 821 822 824 825 826 827 828 829 830 829 831 830 831 833 830 834 843 847 850 851 849 850 850 850 851 851 852 849 851 855 855 853 852 852 850 852 857 856 857 865 865 860 861 869 881 882 874 869 868 863 862 875 875 853 850 867 878 877 871 868 868 866 861 848 846 864 871 854 828 810 810 813 819 828 826 827 832 829 829 831 832 832 830 831 833
819 820 820 821 822 823 824 825 825 826 828 828 829 831 830 831 832 830 837 846 849 853 853 849 850 851 851 854 855 851 849 852 855 855 855 853 853 851 848 854 857 859 870 867 857 863 871 874 876 872 867 862 859 861 875 878 857 853 875 882 877 872 869 868 865 859 854 854 863 866 860 847 822 810 820 828 825 820 820 822 822 822 824 823 823 824 824 825
819 820 820 821 822 822 823 823 823 826 826 826 829 830 830 832 832 831 840 851 854 855 856 852 851 852 853 855 855 854 855 857 853 852 856 854 852 851 849 858 860 861 874 864 848 865 876 869 871 871 863 859 861 869 879 880 865 864 883 885 878 875 870 871 866 858 863 863 853 853 859 851 823 809 825 832 820 813 809 808 809 811 814 817 816 816 817 818
820 819 820 821 822 822 823 822 823 825 824 826 829 829 831 832 830 835 845 854 856 856 857 854 850 854 857 856 856 859 860 860 857 855 856 855 853 852 853 864 866 863 873 865 853 868 878 875 878 873 862 861 870 881 885 881 871 875 887 884 880 880 873 872 866 857 868 864 844 848 859 850 818 796 810 822 814 806 800 797 799 801 805 808 809 809 810 812
819 819 820 821 822 823 822 823 824 824 825 827 828 830 832 831 834 844 852 854 855 858 859 855 855 861 862 856 855 861 861 862 865 861 856 856 855 856 861 867 865 861 864 864 863 872 880 884 885 878 870 871 878 887 890 887 881 882 883 875 873 874 870 870 866 862 863 851 846 860 868 859 832 798 794 805 804 800 798 794 795 798 800 802 804 804 805 807
819 820 820 820 822 822 822 824 824 824 826 827 829 831 831 834 843 850 855 856 856 858 858 860 866 869 867 861 859 863 864 864 869 864 857 859 858 857 862 861 859 856 854 857 864 873 878 877 878 880 880 880 880 882 888 890 888 883 873 864 861 860 862 862 860 864 855 838 852 875 877 870 845 807 792 795 800 804 805 801 796 795 796 798 801 802 803 804
820 820 820 821 821 822 822 824 824 826 827 828 831 830 832 843 848 848 854 856 855 859 862 866 870 871 873 870 866 871 869 865 870 871 869 868 864 866 869 866 863 855 848 854 860 862 866 869 874 881 883 883 876 869 877 883 883 878 865 859 855 849 854 854 847 855 849 840 864 882 876 867 839 807 796 795 797 801 803 802 799 797 796 795 799 801 802 804
820 821 821 821 822 822 823 824 825 826 827 830 831 830 838 846 847 855 861 854 856 867 871 872 873 875 873 865 866 876 873 868 871 874 877 873 866 873 881 881 879 864 853 860 860 852 855 865 874 875 875 881 876 860 858 864 869 868 860 856 852 851 861 861 853 859 853 845 868 885 876 857 826 802 797 794 791 793 796 799 799 799 799 797 797 800 802 804
822 822 821 822 823 823 824 825 826 828 829 830 830 835 845 845 851 866 864 857 866 874 875 877 875 872 870 865 870 877 870 868 875 873 871 867 859 862 870 878 883 873 861 863 866 861 853 852 861 866 868 876 876 867 862 860 862 867 868 863 856 854 858 856 851 853 851 848 863 881 869 839 812 798 794 795 795 796 798 801 803 803 802 802 801 801 801 800
824 823 823 824 824 825 826 827 828 829 829 829 834 841 845 844 852 860 856 859 870 871 874 881 873 863 865 869 877 882 871 866 874 872 866 863 859 859 864 871 879 877 864 858 870 876 859 848 862 873 875 877 874 874 878 867 860 872 877 866 858 855 852 864 876 877 878 872 865 865 847 816 802 795 791 794 795 796 797 797 801 800 798 802 803 800 798 797
825 825 824 825 826 827 828 828 829 830 829 832 838 842 845 848 854 856 858 865 867 866 868 870 866 858 856 862 870 879 879 872 871 867 863 867 868 868 873 875 879 880 869 860 868 872 854 849 869 877 875 880 877 876 882 870 858 868 870 858 864 871 860 867 889 899 901 881 851 844 832 808 802 793 784 791 791 790 794 791 792 795 795 800 799 795 795 794
826 826 826 828 828 828 829 829 829 829 829 833 838 845 854 861 863 865 871 873 870 870 863 855 860 861 855 858 861 869 875 873 871 863 858 865 866 868 876 878 881 883 878 873 870 870 861 850 864 877 869 876 886 880 880 880 870 864 860 859 870 877 868 865 874 881 885 869 844 841 836 817 812 799 783 788 791 786 787 786 788 792 792 793 792 790 791 791
827 827 828 829 829 829 830 829 830 830 831 837 844 855 864 866 869 874 876 875 872 870 860 851 861 869 864 858 857 868 873 863 863 863 857 859 860 865 872 873 881 887 886 883 871 873 875 852 856 881 874 872 886 878 869 877 880 869 864 870 870 862 860 865 869 865 864 863 850 845 845 827 812 800 783 781 785 783 783 784 785 786 785 786 786 786 788 789
827 828 829 831 831 830 830 829 831 831 832 840 846 853 863 867 872 878 877 875 871 865 859 855 863 872 871 864 859 870 876 864 861 864 858 857 858 864 871 870 879 888 889 888 875 874 880 857 850 875 879 873 875 869 857 860 876 880 871 873 874 866 862 864 872 868 859 859 854 848 843 815 786 783 782 778 780 781 783 784 783 783 783 785 787 786 786 788
828 828 831 832 830 830 831 829 831 832 835 847 853 856 865 869 872 880 881 878 872 865 861 860 865 867 867 871 867 869 878 875 869 865 862 864 861 861 871 872 875 886 890 890 882 876 879 866 851 862 877 871 857 854 850 843 858 871 866 870 875 879 880 873 875 877 864 855 857 859 844 798 765 771 778 777 779 779 781 783 782 783 784 787 789 788 788 788
828 829 831 832 830 832 831 830 842 849 849 856 862 864 869 868 869 879 884 882 877 873 870 867 866 863 861 867 867 869 875 876 875 870 864 865 859 855 867 872 873 882 885 882 880 876 873 867 858 857 861 852 844 858 867 858 858 857 853 858 860 866 874 864 865 880 881 868 860 862 845 792 761 771 776 775 779 777 779 783 782 783 786 787 788 786 786 785
828 831 832 831 831 831 830 839 861 868 858 857 864 867 869 867 869 876 880 881 878 874 875 872 870 868 864 864 867 872 872 870 874 872 862 863 860 856 867 875 874 877 876 874 879 882 877 871 867 858 847 844 855 873 879 875 871 864 858 857 855 859 860 849 850 866 881 883 876 880 863 797 757 770 775 773 778 778 782 786 786 786 787 787 785 782 781 781
829 831 832 831 831 831 832 843 861 866 862 865 870 871 871 869 870 874 876 877 875 873 872 870 870 868 866 867 870 873 869 864 866 865 861 864 865 867 875 878 875 875 874 874 878 883 880 871 866 854 837 844 868 879 880 881 876 865 862 864 863 861 858 855 860 862 866 869 868 878 862 794 758 772 776 775 783 784 787 790 789 788 786 783 782 779 777 776
833 833 833 832 831 830 832 837 845 856 866 870 869 869 871 870 870 871 871 870 871 871 867 866 869 867 869 873 871 869 868 860 857 860 865 867 868 875 881 879 877 873 871 872 872 874 871 862 861 854 836 835 847 852 858 869 870 857 854 864 865 866 874 876 877 877 867 847 840 852 832 779 763 778 776 778 787 783 782 784 782 782 780 778 778 776 774 773
832 833 834 834 832 832 837 840 841 850 865 867 863 865 867 867 870 870 868 869 871 871 865 866 871 870 873 878 873 872 873 863 858 864 871 872 871 878 883 881 880 876 874 879 876 871 868 864 860 852 840 834 826 822 829 842 853 854 856 867 868 869 874 866 860 869 859 836 833 834 807 767 759 770 769 773 779 775 774 775 773 774 774 774 776 772 771 770
829 830 833 834 835 838 846 853 848 846 858 858 855 863 864 861 867 872 870 867 870 873 869 869 873 871 873 874 869 869 873 870 870 872 872 869 867 876 886 884 883 881 879 883 881 875 875 875 866 851 842 833 819 821 837 845 845 844 848 860 866 869 871 861 857 855 841 835 832 813 795 781 767 765 770 771 770 770 770 769 768 770 770 770 771 768 768 768
828 829 834 834 835 840 846 853 851 847 851 848 844 855 860 857 863 869 869 869 870 872 870 869 871 866 864 868 863 862 870 874 875 874 871 868 868 876 887 887 884 883 882 883 881 878 876 873 867 859 848 838 828 831 848 855 848 840 840 846 854 865 871 867 856 834 822 833 820 787 790 798 777 765 772 771 768 769 769 768 768 767 767 768 767 766 765 764
831 833 842 840 834 837 840 844 850 850 850 849 850 856 856 855 859 857 861 870 873 871 866 863 866 862 858 860 855 855 867 869 867 868 866 868 871 873 877 882 883 881 881 883 881 879 874 865 867 869 856 847 849 847 848 851 847 841 841 840 843 855 864 859 844 826 823 828 805 777 787 793 775 767 770 767 768 769 768 769 768 766 767 767 765 763 762 760
836 837 847 846 839 844 850 851 853 849 848 851 853 855 853 851 851 852 860 868 867 868 864 853 853 858 858 859 854 851 856 852 847 855 860 863 869 869 865 869 877 881 879 878 881 882 872 860 872 883 865 849 851 852 850 852 849 844 842 840 838 842 847 845 835 824 824 820 800 789 794 787 773 771 769 766 769 771 770 770 767 765 765 763 762 761 758 757
831 830 838 844 845 853 858 857 852 845 847 853 847 848 854 849 845 851 858 855 848 857 866 852 845 854 859 859 855 848 844 838 834 843 853 855 860 864 857 851 864 881 881 875 880 884 872 861 873 884 865 843 846 855 857 857 855 848 836 829 831 833 835 837 833 828 828 822 806 803 806 794 776 771 772 772 771 771 770 768 764 761 760 759 758 756 755 754
827 826 830 832 839 852 854 853 852 843 841 847 842 842 849 844 842 847 848 846 842 845 855 849 843 854 863 863 858 846 839 841 838 840 848 848 847 852 850 846 856 872 876 877 879 879 875 869 873 878 857 836 845 859 854 848 847 837 818 806 810 819 823 824 822 820 821 816 811 816 815 795 772 766 770 771 769 769 766 763 760 755 753 755 755 752 752 751
827 828 829 826 833 851 853 849 851 843 834 837 838 840 842 840 846 847 837 841 848 847 849 849 845 850 857 858 854 844 840 845 846 847 851 850 849 851 851 850 853 857 866 876 877 878 878 867 865 870 851 834 850 859 847 841 831 806 787 780 780 791 803 808 808 807 808 809 810 809 795 772 762 765 766 763 763 762 759 757 755 750 750 752 752 750 749 748
Wind_Speed
5 4 4 3 2 1 1 2 3 4 4 4 4 3 4 5 4 3 3 2 2 2 2 1 1 4 9 14 16 15 12 12 14 15 12 8 10 14 18 15 13 10 6 5 3 3 6 7 7 8 8 5 1 2 3 2 2 3 4 4 4 3 2 0 1 0 1 6 11 9 6 7 8 5 5 6 6 7 6 5 4 6 7 7 10 13 14 12
6 5 5 4 2 2 2 3 4 4 5 6 6 5 5 5 5 5 5 4 4 4 2 2 2 6 13 16 15 11 5 5 10 14 10 12 15 17 18 15 10 7 4 3 1 3 6 6 7 9 6 3 0 0 3 2 3 1 2 4 3 1 1 3 4 2 1 6 12 8 5 6 7 7 6 6 7 7 6 5 5 7 7 8 10 10 11 11
6 6 6 5 4 3 4 4 5 5 5 6 7 7 7 6 6 5 5 6 6 5 3 3 3 7 14 15 11 4 3 3 4 8 10 17 19 20 17 12 7 5 3 3 2 3 5 5 9 8 4 2 1 1 3 2 3 0 2 5 1 3 3 4 4 3 2 6 13 9 5 4 5 5 4 6 9 7 7 6 6 9 10 9 9 8 9 10
6 6 6 5 5 5 5 5 5 5 5 6 6 7 7 6 6 5 6 6 5 4 2 3 4 7 13 13 10 3 4 3 2 7 14 21 23 19 13 8 6 3 2 3 2 2 4 5 8 5 3 3 2 1 2 3 2 1 1 2 3 2 1 5 5 2 1 7 11 9 8 6 4 2 3 8 9 6 6 5 4 9 13 11 9 9 8 9
5 5 5 5 5 6 5 5 5 5 6 6 6 7 7 7 6 6 6 6 5 4 3 4 5 6 10 12 11 4 4 3 3 11 19 23 20 14 10 8 5 3 2 2 1 4 5 6 7 3 3 4 2 2 2 4 2 2 2 2 3 2 1 4 4 3 3 7 10 10 8 6 5 3 4 7 5 2 2 3 2 6 11 10 9 9 8 9
6 6 5 5 5 5 5 6 6 6 7 7 6 5 6 7 7 7 7 7 6 4 4 4 5 5 7 10 10 5 3 1 7 17 22 20 13 10 10 7 5 3 2 2 5 6 5 5 7 5 3 2 1 1 3 3 2 0 2 3 3 2 1 3 3 3 2 7 8 7 6 6 7 4 2 3 2 2 3 3 4 5 7 7 8 9 9 9
6 7 7 6 5 5 6 7 7 8 7 6 5 4 5 5 7 8 7 7 6 4 5 4 4 5 8 9 6 2 0 2 12 21 20 15 10 10 9 6 4 2 1 4 5 5 4 5 7 5 3 2 2 3 3 3 2 1 3 3 4 4 4 3 3 2 3 5 6 5 6 5 4 4 2 1 1 2 2 3 4 4 5 5 6 8 8 9
6 7 7 7 6 6 7 8 8 8 7 5 5 4 3 4 6 8 7 6 5 5 5 5 7 9 10 10 5 2 4 6 17 22 16 11 9 10 8 4 3 1 2 3 4 4 4 6 6 4 3 2 3 4 2 1 4 4 4 5 4 5 6 5 5 5 6 6 5 6 5 3 1 2 3 3 3 3 2 3 4 4 5 5 6 7 8 8
6 7 8 7 6 7 8 8 8 7 6 5 4 3 3 5 8 10 8 7 6 6 6 8 11 10 8 6 2 0 4 9 17 18 13 9 8 7 6 4 3 1 3 4 2 4 4 4 5 4 4 4 4 4 2 2 2 4 7 7 7 7 6 6 6 7 6 4 2 4 5 3 2 0 3 5 5 4 4 4 4 5 6 6 6 7 7 8
7 7 8 7 7 7 8 8 7 6 4 3 2 3 4 7 10 11 9 7 6 7 9 11 9 5 4 3 1 1 5 12 14 13 10 9 6 5 6 5 3 2 4 5 4 2 2 2 5 6 8 7 4 4 4 2 4 9 12 11 9 8 5 4 6 5 3 3 1 1 4 3 2 2 3 6 7 6 6 6 5 6 7 7 6 7 7 8
6 7 8 7 7 7 7 6 5 4 3 2 0 4 8 10 12 11 8 7 7 9 11 12 9 8 10 7 3 3 7 12 12 11 9 9 9 9 12 9 3 3 4 6 6 3 1 4 8 6 4 5 6 8 6 4 10 13 14 12 9 7 7 3 4 3 1 2 2 1 4 2 3 3 2 8 10 8 7 7 7 8 8 7 7 7 8 9
6 6 7 7 6 7 6 5 5 5 4 4 7 11 12 13 11 9 8 8 9 11 14 14 10 9 12 11 6 4 7 10 12 11 9 10 13 14 14 13 8 4 4 6 6 5 8 9 9 6 2 5 6 6 6 6 9 9 6 8 7 5 6 3 2 1 1 2 2 1 2 5 9 6 3 10 10 8 8 8 8 8 7 7 7 7 8 9
5 6 6 5 6 6 6 6 6 7 8 11 13 14 13 13 12 12 12 12 12 13 14 10 3 3 6 6 4 6 6 9 12 10 10 10 12 16 16 15 15 12 10 12 9 7 10 9 12 11 5 5 5 4 7 5 3 4 2 4 6 4 3 3 1 0 1 3 1 3 4 5 9 7 7 10 10 10 9 9 9 8 7 8 7 7 8 10
4 5 5 4 5 5 7 8 8 9 11 14 15 15 15 16 17 18 16 13 11 9 9 6 3 6 6 3 2 7 7 7 12 12 12 10 7 10 16 17 18 19 19 20 16 13 14 16 19 14 4 5 7 8 9 4 1 3 2 1 3 3 3 4 2 2 4 3 1 3 5 4 5 7 8 9 9 11 10 10 10 9 8 8 8 8 8 11
3 4 3 3 3 5 7 8 9 10 12 14 15 17 18 17 16 13 10 9 9 9 9 7 5 6 6 4 1 7 9 9 15 17 15 12 7 4 9 15 18 19 20 21 19 18 18 18 15 9 5 6 9 9 7 4 2 2 2 2 2 3 2 4 2 1 2 2 1 3 5 4 2 7 10 9 9 11 10 10 11 10 10 9 9 9 9 10
2 3 1 2 2 5 8 9 9 11 13 14 16 17 15 13 12 11 10 8 7 7 7 6 4 4 4 3 2 7 9 10 15 16 13 11 11 6 2 7 12 15 17 17 18 17 16 16 9 4 6 5 6 6 5 3 3 1 3 1 2 3 1 3 3 1 1 1 4 5 5 5 1 6 9 9 9 10 10 11 12 11 11 10 9 9 9 10
2 2 1 3 4 7 10 11 11 12 13 13 13 11 10 10 10 11 11 10 9 9 8 7 5 4 3 3 3 5 7 10 14 15 13 9 9 9 3 3 4 7 10 11 13 11 10 9 2 1 4 2 1 2 4 3 3 3 2 2 2 3 2 2 3 2 1 2 6 6 6 10 3 6 8 10 10 11 11 12 12 11 11 10 10 9 10 10
1 1 2 5 6 9 11 11 12 14 16 16 14 14 14 13 11 10 8 5 4 6 7 8 5 3 2 5 4 6 10 11 13 15 14 10 6 9 9 5 1 1 3 3 8 7 5 3 2 3 4 2 1 2 4 1 2 3 4 4 2 3 5 4 1 2 1 4 6 7 8 14 9 6 9 10 11 12 13 12 11 12 12 11 10 11 11 11
1 1 3 6 9 9 11 13 17 19 20 19 19 18 16 14 12 15 18 13 4 1 2 5 5 1 1 5 7 10 9 7 11 14 16 15 8 5 9 7 2 1 2 2 4 6 2 2 3 4 4 2 1 2 2 3 3 1 2 4 3 4 4 2 2 3 1 3 8 11 10 13 13 7 9 11 12 13 13 12 11 11 11 11 11 11 12 13
1 1 4 8 10 11 15 19 20 18 15 13 11 8 6 5 6 8 15 15 6 2 2 2 2 2 2 4 9 11 6 3 6 13 18 17 8 2 5 5 1 4 3 1 3 3 2 2 3 1 2 2 3 3 2 3 2 1 1 3 4 4 2 2 3 3 1 4 7 8 9 13 14 11 9 11 12 13 14 14 13 13 12 12 13 13 14 14
2 1 5 8 12 15 20 21 17 13 9 5 2 1 2 1 1 2 3 6 4 3 4 3 1 2 2 3 9 10 3 3 3 13 22 17 6 2 4 3 1 3 4 2 1 1 2 1 3 3 4 3 3 1 1 1 0 1 1 2 3 3 2 2 2 1 1 3 4 1 7 13 14 14 9 10 12 14 16 16 16 16 14 12 13 15 14 13
2 1 5 9 14 18 21 19 13 9 4 3 1 1 2 2 6 8 6 4 3 4 4 2 1 3 1 2 9 9 2 2 6 14 23 18 7 3 4 4 3 2 2 1 2 1 2 3 3 4 2 1 2 1 1 1 1 1 1 2 2 1 1 1 3 1 1 3 3 3 7 13 14 15 10 11 13 13 14 17 16 15 14 13 14 14 13 12
2 2 6 9 14 20 21 17 11 7 2 3 2 5 7 10 13 12 7 5 3 2 2 2 3 4 3 3 10 10 3 4 4 11 22 17 6 4 3 4 5 3 3 3 0 1 2 3 4 2 2 2 3 3 1 2 1 0 0 2 2 2 2 2 2 1 2 2 5 7 9 13 14 14 13 12 12 11 11 14 14 13 14 14 13 12 12 14
3 2 7 10 14 20 21 17 11 6 2 1 4 11 14 15 14 10 6 3 2 1 1 1 1 3 3 4 10 8 4 4 2 8 18 13 3 1 2 4 4 4 5 6 4 5 4 3 3 1 3 1 1 3 0 2 1 1 1 2 2 2 2 3 2 1 3 2 3 8 10 10 8 8 8 6 8 10 10 11 13 14 14 13 13 13 14 15
3 3 7 10 13 19 22 16 10 8 4 4 9 14 16 15 10 6 3 1 2 1 0 1 1 2 2 4 9 4 3 3 2 5 11 9 3 1 2 1 2 3 1 4 5 7 5 2 0 2 3 1 1 2 3 3 2 1 1 1 2 2 1 2 3 3 4 2 1 5 7 7 2 5 6 4 6 10 10 11 15 14 14 13 13 15 15 15
3 3 8 9 12 18 19 11 9 10 6 4 10 15 15 11 5 3 1 0 1 1 2 1 1 3 3 5 8 2 3 2 2 4 7 7 4 1 2 0 2 3 1 1 3 3 3 2 2 2 3 2 1 2 2 2 3 1 1 1 0 1 1 2 2 3 4 2 1 1 4 8 6 4 5 3 5 9 8 12 15 13 12 13 14 14 14 15
3 4 8 9 13 18 13 6 11 13 4 4 14 16 12 7 3 2 0 1 1 1 2 1 1 4 4 4 5 1 0 3 2 2 7 8 4 1 1 1 1 3 2 1 1 1 2 2 2 2 3 3 2 2 1 2 2 0 1 0 1 1 2 2 2 3 3 4 1 2 2 7 9 3 1 1 5 9 9 12 14 13 14 15 15 14 14 15
4 4 9 11 15 15 6 5 14 12 3 9 18 16 11 5 2 1 1 0 1 0 1 2 2 3 3 4 5 3 1 4 2 2 7 8 5 0 1 3 1 3 2 3 1 2 1 1 2 2 3 3 1 2 2 2 2 1 1 1 2 2 2 2 3 3 1 4 4 4 3 5 8 3 3 2 6 9 11 12 14 14 15 16 16 16 16 16
5 4 8 12 13 9 4 7 12 9 7 15 19 15 9 4 1 0 0 1 0 1 1 1 1 3 4 3 4 5 2 3 3 4 7 6 7 4 4 3 3 6 3 2 1 2 0 2 2 1 1 2 2 3 1 2 1 2 3 2 2 2 1 2 3 2 0 4 5 3 4 4 9 6 3 2 4 7 8 8 9 10 12 14 15 16 16 14
6 5 7 11 11 7 6 7 7 8 13 19 18 12 6 1 0 1 1 1 1 1 1 2 2 3 5 1 2 5 4 3 2 5 4 2 5 7 4 0 1 5 4 3 4 3 1 1 1 2 2 2 3 3 1 2 1 3 4 3 3 3 2 1 1 1 3 5 1 2 2 3 7 5 2 2 2 3 4 5 5 5 7 10 12 13 13 12
6 6 6 9 9 7 5 5 7 12 17 18 15 8 2 1 1 1 0 0 0 1 0 2 2 2 5 2 2 4 3 3 4 5 4 2 3 5 2 1 1 2 2 3 4 2 2 2 1 1 2 2 3 3 1 0 1 2 2 2 1 1 1 2 2 1 4 4 2 3 1 5 7 6 3 2 2 3 4 6 7 8 7 6 7 9 10 10
8 5 5 6 7 6 5 6 10 15 17 16 10 3 1 0 1 1 1 1 1 1 1 1 1 2 3 1 2 5 3 2 4 4 4 2 3 4 2 2 0 1 0 1 1 1 3 2 1 1 1 1 2 3 2 2 3 3 2 2 3 3 1 3 2 1 4 2 2 2 1 5 10 11 11 11 10 9 8 8 10 11 11 8 5 5 7 7
10 5 5 7 6 7 9 11 13 15 16 12 5 1 1 1 1 1 1 2 1 2 1 0 1 1 2 1 2 3 2 1 3 2 1 1 1 2 1 1 1 2 1 1 1 0 2 3 3 3 2 2 4 3 1 2 3 3 2 1 3 3 2 3 2 2 4 2 2 2 1 6 9 10 12 15 14 10 7 7 9 10 12 12 8 5 5 6
12 7 8 11 11 11 12 11 13 14 13 7 2 1 1 1 1 1 1 1 1 1 1 0 1 0 1 1 2 3 1 1 2 2 0 1 0 1 2 1 0 1 0 1 0 1 1 1 3 3 2 2 4 3 2 1 3 1 1 1 2 2 3 4 2 2 5 4 1 3 1 5 5 3 3 7 8 6 5 5 5 8 9 9 8 8 7 7
13 12 13 15 13 12 10 9 11 10 7 3 1 1 1 2 1 2 2 1 1 1 1 0 1 1 1 1 1 1 1 1 1 1 1 1 0 0 1 1 0 1 1 1 1 1 3 2 2 2 0 1 2 1 1 0 2 2 1 1 2 1 2 2 1 1 2 5 3 4 3 6 5 8 8 7 7 7 8 7 7 9 8 5 7 8 8 8
12 12 13 14 12 9 7 7 6 5 3 2 1 1 1 1 1 2 1 1 2 2 3 2 0 1 1 0 1 1 0 1 2 1 0 0 1 1 1 0 1 1 1 1 1 1 2 1 3 2 1 1 1 0 0 2 1 2 2 2 1 1 1 1 0 2 1 4 5 2 6 7 5 10 9 4 5 7 7 8 8 9 7 4 7 7 6 7
9 10 10 11 10 6 5 4 3 3 2 2 1 1 0 1 1 1 1 1 0 1 2 2 0 1 1 1 1 1 0 1 1 1 0 0 1 3 2 1 1 1 1 1 1 2 2 2 2 2 2 2 1 1 1 2 2 1 2 2 3 1 1 1 2 1 2 5 4 2 8 9 4 6 3 3 3 6 6 7 6 6 6 5 6 7 7 7
4 5 7 11 9 4 4 3 3 3 3 2 1 1 1 1 0 1 2 1 0 1 2 2 0 0 1 1 1 1 2 1 0 1 1 1 1 3 4 2 2 0 1 1 1 1 2 3 1 1 1 3 2 3 2 2 1 2 0 2 1 2 2 1 2 3 3 5 4 3 6 8 6 6 4 4 6 7 7 7 6 6 6 5 6 7 7 7
1 1 3 8 7 3 2 1 2 3 2 1 1 1 1 1 1 1 2 1 0 1 2 1 0 0 2 1 0 1 1 1 0 0 1 1 1 3 3 1 2 1 0 1 1 1 1 3 0 2 1 1 1 4 4 3 3 1 1 2 0 2 3 2 0 1 3 4 5 3 3 7 9 7 5 8 7 7 8 6 6 7 6 5 6 6 6 6
1 1 1 5 5 3 3 3 3 3 1 1 1 1 1 1 2 1 0 1 0 1 1 2 2 1 3 2 1 1 1 1 1 0 1 1 1 3 3 2 3 4 1 1 1 1 2 2 2 1 1 2 3 3 3 3 3 3 4 4 2 1 0 2 1 1 2 4 4 4 5 11 8 5 6 9 8 7 8 7 8 7 6 6 6 6 6 6
1 1 1 5 3 1 3 5 5 2 1 1 1 1 1 1 3 3 1 1 1 1 1 1 2 1 2 1 1 2 2 2 2 2 2 2 2 2 3 3 5 6 3 2 2 2 2 2 3 1 3 5 3 2 2 2 0 2 4 4 5 4 2 3 4 1 1 3 3 2 7 13 5 5 4 8 7 7 7 7 8 7 7 7 7 6 7 7
1 1 2 5 1 2 3 4 2 1 1 1 1 1 1 1 3 2 2 1 1 0 0 0 1 1 2 1 1 2 2 2 2 2 3 3 3 1 1 2 5 6 2 1 1 1 0 1 3 5 6 4 2 3 2 2 1 1 3 2 3 3 4 6 5 2 2 2 1 1 5 12 2 8 4 6 5 5 4 5 7 7 7 7 7 8 8 8
1 1 3 6 2 3 4 2 0 1 1 1 1 1 1 1 2 2 2 3 2 1 1 1 2 2 2 1 1 3 4 3 3 3 2 2 2 1 1 3 5 5 2 1 1 2 1 2 3 6 6 2 4 3 2 1 0 2 3 3 4 2 2 3 2 0 1 4 3 2 6 11 1 7 4 2 1 3 4 4 7 7 7 8 9 11 10 10
1 1 2 6 3 1 1 1 2 1 1 1 1 1 0 0 2 2 2 3 3 2 2 2 2 1 1 1 1 3 3 2 3 2 1 2 1 2 1 3 4 4 3 1 1 3 3 2 1 4 5 1 1 1 2 1 2 4 3 4 5 3 5 2 1 1 3 9 11 6 9 11 2 5 4 3 2 4 6 7 8 8 9 9 9 11 11 11
1 1 1 6 8 4 1 1 2 3 2 2 2 2 1 1 1 1 2 2 2 2 1 0 0 1 2 1 1 2 3 2 2 1 0 1 2 1 2 1 2 1 1 1 1 2 3 2 3 3 5 4 4 3 2 0 2 3 2 4 6 6 7 3 2 3 6 8 11 10 12 12 8 3 3 4 6 8 10 11 10 9 9 8 9 10 10 10
1 1 1 2 6 5 2 1 1 4 4 3 2 2 3 2 1 1 1 2 2 2 1 1 1 1 2 2 2 3 4 3 1 1 1 3 2 1 2 0 1 1 1 2 1 1 1 2 5 8 8 8 8 4 2 2 3 6 5 6 6 7 7 3 1 5 7 3 7 15 15 16 20 15 11 13 13 13 13 13 13 11 9 8 9 10 10 10
1 1 1 1 1 2 2 1 1 2 3 3 2 3 4 3 1 1 1 2 1 2 1 1 2 4 3 4 4 3 3 3 1 2 3 3 1 1 1 1 1 2 3 2 0 1 1 3 6 10 14 14 12 8 1 0 9 13 10 8 9 8 7 7 10 12 4 1 11 16 12 14 22 18 13 15 15 13 13 14 14 13 11 11 11 12 13 12
0 1 1 0 0 1 1 1 1 3 3 1 0 2 4 4 3 3 2 0 0 2 3 2 4 7 6 5 3 2 2 2 3 3 2 2 1 1 2 2 2 3 4 3 1 1 2 4 2 4 12 14 10 11 9 8 13 14 13 14 11 10 12 13 20 19 8 7 18 16 8 14 20 18 16 17 15 14 15 15 16 15 13 13 13 13 13 12
1 2 1 2 1 1 1 1 2 4 3 2 0 3 4 5 6 3 2 2 2 4 4 4 6 8 8 6 3 3 4 3 3 4 3 2 2 2 2 2 3 3 4 5 2 2 3 4 1 2 9 13 9 10 11 11 12 13 15 16 14 14 16 17 21 21 15 18 25 24 22 22 20 19 21 19 15 13 14 15 15 15 14 12 13 13 13 12
1 2 2 1 2 2 1 0 2 3 2 1 1 3 3 6 7 3 2 5 4 3 6 6 5 5 7 8 7 7 7 5 3 3 5 4 3 3 3 2 4 4 5 5 3 2 3 2 2 3 7 11 4 2 4 6 9 14 17 17 16 17 18 18 18 17 15 20 24 23 21 21 19 18 17 16 15 12 13 14 15 14 12 11 12 13 12 11
2 3 4 3 2 1 1 1 1 0 1 2 2 3 3 6 7 4 4 5 3 4 8 8 4 4 3 6 10 13 10 6 4 3 6 5 3 3 3 2 6 7 6 4 2 3 4 2 1 2 5 6 2 3 3 6 9 15 19 19 16 15 14 14 14 13 14 15 13 10 11 14 14 11 9 11 12 12 13 14 14 13 10 10 12 12 11 11
4 3 2 2 2 1 1 1 1 1 1 2 3 4 3 3 4 4 4 2 1 2 5 6 5 4 2 6 12 12 5 3 4 2 2 3 2 1 2 3 5 6 7 6 2 2 3 3 2 2 4 4 2 3 5 8 11 12 11 10 10 11 10 10 10 12 14 11 6 6 10 11 8 7 9 12 12 12 13 12 12 12 10 9 11 12 12 12
Wind_Direction
342 341 328 319 316 318 295 266 261 265 263 262 255 236 229 232 227 219 209 218 237 233 244 245 176 137 138 137 130 126 108 85 70 61 62 27 348 338 340 335 327 323 313 331 332 177 155 149 153 160 162 159 186 163 150 50 4 228 217 228 232 210 204 109 136 155 99 145 149 157 177 155 139 135 136 126 97 105 104 87 95 84 74 85 100 116 133 149
333 329 317 311 311 296 279 269 262 257 258 260 261 254 238 229 227 216 201 207 221 230 235 215 182 151 150 144 137 129 93 57 55 55 38 355 341 335 334 332 325 315 303 324 309 188 179 167 159 165 171 169 112 163 170 17 338 241 220 228 237 40 89 15 360 344 352 149 147 152 169 153 142 140 160 172 140 142 135 117 132 118 104 111 114 121 138 154
329 327 319 314 307 290 270 262 259 255 254 255 257 257 248 238 230 222 211 209 214 222 217 194 182 162 162 157 155 146 346 308 34 29 352 341 337 333 332 330 328 310 282 305 314 212 205 176 165 171 177 175 75 158 169 4 335 51 255 233 180 49 81 34 358 329 329 148 144 143 142 129 126 133 176 174 151 173 175 147 158 154 145 139 133 137 147 158
337 335 325 315 303 290 278 270 265 262 259 255 253 252 249 240 227 222 219 214 215 220 207 188 183 175 177 177 184 199 320 271 21 350 336 339 334 332 335 336 330 300 279 301 323 179 191 164 166 179 190 176 77 123 131 17 347 94 293 276 58 40 66 33 9 13 107 152 141 135 139 133 132 155 194 166 156 194 195 163 170 162 154 148 145 148 155 160
356 351 334 318 306 297 293 288 283 278 274 272 265 256 245 233 219 209 206 209 212 209 192 180 181 182 188 193 199 218 305 249 10 346 338 339 336 340 342 341 330 291 288 281 139 138 144 148 165 180 200 180 123 158 69 27 7 76 56 21 30 321 13 41 29 51 100 137 132 140 149 136 140 161 186 187 190 209 162 144 142 143 144 147 151 154 159 164
11 5 351 337 324 317 314 305 297 291 288 286 276 262 246 227 210 197 191 193 194 192 178 176 182 183 190 197 204 229 273 230 358 342 340 343 345 354 347 338 330 303 277 169 135 144 143 151 179 185 181 166 107 142 65 32 309 110 91 57 24 357 61 69 56 35 93 136 134 141 133 121 148 156 152 239 274 31 53 103 126 117 125 137 147 158 165 169
17 13 5 357 345 334 322 309 301 295 290 286 273 263 247 224 203 187 181 183 182 175 156 155 168 164 168 170 170 178 115 20 347 337 343 353 352 351 352 345 344 347 188 167 152 150 162 181 187 181 154 134 98 95 72 55 28 53 110 85 48 51 69 70 76 61 65 102 105 114 122 132 163 156 147 235 80 84 62 99 125 118 119 136 154 168 172 171
18 16 10 5 355 340 327 321 317 306 290 277 266 262 240 211 192 177 171 170 163 150 139 142 148 142 146 152 154 98 60 352 334 336 345 358 354 352 356 1 13 67 118 155 181 172 178 188 183 183 149 117 112 106 68 73 72 60 107 115 77 69 80 84 90 89 80 83 100 115 112 99 74 115 172 189 152 140 144 129 140 140 142 164 175 179 177 175
18 15 8 8 359 342 338 338 336 327 307 284 263 249 217 189 177 169 165 161 148 134 132 138 138 137 148 158 200 173 31 345 333 337 347 357 0 3 5 18 50 132 107 90 141 174 185 191 183 181 121 92 95 91 352 307 93 86 111 118 105 98 96 100 93 85 88 90 117 118 95 87 75 42 204 176 166 158 161 161 158 166 174 182 187 190 188 187
13 8 6 8 358 346 347 349 347 344 329 305 269 213 182 170 163 159 156 151 143 135 137 140 133 136 162 168 189 118 7 350 346 346 355 8 10 23 30 28 53 113 105 79 72 121 212 202 146 131 106 95 73 45 349 322 107 109 113 105 99 105 100 102 101 90 96 89 340 164 122 134 137 252 233 164 169 170 169 177 173 187 192 192 196 197 199 201
6 2 5 7 357 351 354 1 4 7 359 342 112 149 152 154 153 151 152 150 144 137 137 133 114 97 96 82 78 68 2 353 3 8 13 29 39 44 43 39 63 125 103 78 58 53 79 120 126 125 117 118 88 58 48 98 113 117 115 98 91 105 102 100 110 98 152 101 11 196 135 143 177 233 223 149 164 176 181 183 185 201 200 197 202 202 206 208
358 355 1 8 1 359 14 32 40 41 50 83 111 127 136 141 143 145 146 147 142 136 139 132 106 86 79 67 62 33 354 359 14 27 35 45 55 56 53 52 65 108 131 95 59 73 112 122 109 77 73 139 125 86 99 124 118 125 125 102 108 120 104 83 89 70 272 125 61 268 195 214 203 208 136 141 160 173 189 192 193 205 206 205 206 209 213 211
352 348 358 9 4 17 48 59 64 69 85 104 113 121 125 126 125 123 120 121 127 134 149 151 103 66 76 69 57 16 359 6 15 36 45 47 61 62 61 63 70 79 100 100 84 94 116 120 99 83 73 110 120 115 128 152 143 135 151 112 130 155 129 82 64 172 177 128 16 284 256 226 191 174 134 147 163 171 192 200 200 206 207 212 211 215 219 214
345 337 354 13 10 40 71 75 79 86 99 109 113 115 114 115 115 112 108 104 110 127 151 162 114 93 83 95 80 17 13 15 17 27 30 37 67 69 65 69 76 78 84 89 88 96 108 106 100 96 54 69 117 129 119 139 200 130 160 168 157 201 155 99 77 204 175 146 323 278 257 251 161 148 151 164 171 177 198 202 203 209 207 214 213 218 224 218
336 324 351 30 26 60 84 88 91 98 106 110 111 113 112 113 113 108 103 97 100 109 116 117 106 103 88 105 147 2 15 24 17 13 13 25 40 58 70 71 75 80 81 85 88 92 96 91 85 85 74 92 134 142 116 115 117 123 205 191 182 232 155 117 124 212 198 156 232 248 254 267 144 143 158 168 180 190 208 209 207 212 211 215 216 219 226 224
323 307 360 92 86 85 98 100 102 106 111 115 115 115 111 108 108 103 98 91 103 123 111 91 81 105 105 84 357 0 20 14 4 4 6 17 26 23 69 82 76 83 83 80 84 83 74 71 66 75 102 129 151 136 126 140 142 175 251 208 177 222 187 146 148 114 350 149 210 229 263 281 124 135 162 171 187 199 216 220 213 215 216 217 219 221 225 227
313 296 157 142 128 112 114 110 108 109 113 122 121 117 110 106 114 111 99 85 87 108 98 64 60 101 87 19 360 7 357 342 351 1 7 9 22 25 29 122 83 87 89 72 67 60 46 61 102 137 88 132 167 153 178 195 202 181 228 241 198 221 218 201 145 125 232 218 226 218 245 267 239 140 172 184 192 206 221 225 219 218 219 219 222 224 225 227
322 254 170 162 147 131 128 120 114 113 111 113 111 108 103 99 110 102 80 76 88 102 88 44 28 123 71 17 355 328 317 325 352 3 5 3 8 24 34 63 58 204 146 72 41 29 16 61 170 147 109 147 114 235 226 266 265 198 210 228 220 221 231 246 164 116 200 220 237 225 235 260 254 178 182 193 197 212 225 228 227 224 222 222 224 226 227 229
360 193 173 167 158 144 138 131 123 118 112 110 108 106 101 94 94 73 50 52 69 73 73 17 1 146 50 360 325 316 309 316 1 11 6 360 350 12 27 32 40 78 175 215 33 22 5 98 150 146 132 154 46 314 298 6 349 302 240 249 259 239 232 240 102 75 299 232 239 239 241 260 261 224 191 193 199 216 230 231 232 230 226 226 226 229 229 229
22 177 173 168 162 149 143 138 129 123 116 113 117 114 114 98 81 55 38 47 61 10 39 29 11 73 48 348 327 332 321 279 9 18 7 359 347 336 11 4 31 63 45 287 34 21 283 117 114 93 39 5 350 331 335 11 355 333 259 244 256 258 259 112 103 76 330 264 248 242 255 264 265 257 218 190 194 215 228 230 232 228 224 224 225 228 228 231
4 177 174 173 167 156 150 145 138 133 117 101 140 174 187 208 82 132 57 52 53 6 39 53 3 47 35 327 341 346 322 239 3 13 8 5 347 299 355 355 218 68 40 316 312 317 259 91 68 8 360 348 340 319 206 72 130 262 245 232 237 252 276 96 111 91 95 271 261 241 278 267 264 266 235 178 192 217 220 222 228 225 223 226 226 229 230 233
351 192 181 181 176 168 161 156 152 149 119 31 334 150 142 145 132 137 132 104 58 7 31 53 46 47 350 314 357 350 324 17 9 8 4 2 6 360 358 27 68 77 35 302 233 163 89 70 39 12 33 63 55 103 200 153 164 238 204 243 256 254 280 126 131 131 121 258 280 346 300 276 268 265 237 187 201 222 218 219 225 223 222 224 225 227 230 233
342 215 189 184 182 179 173 170 173 174 157 351 21 120 122 123 128 126 113 110 97 9 10 35 49 32 9 24 6 353 30 39 358 360 358 355 20 30 8 49 65 71 19 2 276 169 98 71 25 14 160 145 89 103 212 186 154 330 330 268 297 41 295 255 130 158 214 251 303 313 294 276 265 257 239 203 206 227 220 220 226 223 225 227 227 228 227 229
345 195 187 183 183 187 186 183 190 190 177 7 118 127 129 128 130 124 100 92 109 105 4 26 83 29 30 23 358 359 74 57 323 345 354 359 34 337 23 60 57 69 34 16 64 91 77 56 25 109 172 250 101 110 343 265 185 88 7 306 317 5 265 269 354 295 229 192 300 303 290 273 251 240 246 201 198 232 225 220 229 227 230 233 234 234 229 228
349 176 182 182 181 188 190 189 198 193 163 132 138 138 137 136 139 135 108 77 103 106 115 177 163 45 31 353 358 7 131 74 23 335 347 6 9 282 114 71 356 79 47 357 72 90 71 55 262 159 158 272 263 82 27 318 273 158 88 357 319 321 269 254 316 296 260 205 92 327 307 290 234 200 238 196 193 234 224 219 231 228 225 228 232 233 228 228
356 169 175 178 176 179 181 186 197 184 162 150 157 152 147 144 148 140 116 120 112 29 352 154 150 24 12 350 359 349 177 79 28 347 356 8 352 255 129 75 12 85 160 10 73 96 72 100 185 182 162 164 168 93 39 312 277 224 84 34 298 310 281 258 281 278 289 301 65 340 296 293 294 242 228 212 225 242 228 226 236 233 225 222 225 229 225 224
21 162 172 171 169 170 172 188 184 173 161 178 169 160 156 154 145 143 234 302 123 337 357 15 329 6 14 352 344 290 152 344 304 33 14 3 347 244 105 49 88 78 114 180 109 101 84 120 131 146 170 175 164 115 56 290 274 285 89 94 211 243 257 253 256 254 299 327 278 187 227 278 289 278 159 244 261 257 244 238 239 234 229 228 228 228 223 221
45 151 169 167 168 171 182 189 171 169 183 172 166 165 166 164 160 177 261 275 80 14 13 360 334 12 10 346 2 54 63 322 325 40 1 6 20 278 86 57 96 95 101 254 284 71 6 67 92 149 183 186 154 86 82 229 264 360 71 231 246 257 244 211 247 255 318 319 274 171 161 265 277 259 146 182 264 266 255 245 240 233 228 228 232 230 226 223
57 128 164 168 168 166 169 165 163 171 174 164 164 168 168 165 198 172 85 212 312 55 132 314 334 9 348 327 20 40 30 354 19 344 337 19 36 35 76 67 102 106 96 282 52 103 122 23 22 281 221 148 109 83 77 241 288 74 130 140 130 156 177 187 253 273 205 277 273 153 149 267 288 275 177 164 258 263 260 250 242 238 232 230 232 232 228 224
63 104 151 168 167 150 138 139 151 165 160 160 164 166 166 171 205 140 57 248 317 69 220 340 343 326 338 339 57 27 22 26 351 324 343 50 28 40 79 181 159 111 85 63 68 83 106 57 284 302 5 78 107 93 12 317 69 122 157 150 130 145 146 165 238 307 262 254 259 94 159 250 291 289 202 191 251 244 264 272 261 252 243 238 238 238 232 224
74 102 137 162 167 164 150 125 140 155 155 158 160 156 159 54 73 170 181 254 41 20 328 24 12 335 6 36 40 15 19 21 347 348 24 33 2 39 80 256 209 152 112 92 77 89 148 170 197 58 33 76 123 121 69 59 162 191 228 230 220 188 170 207 194 183 257 263 87 72 255 232 251 266 242 250 264 216 237 267 277 278 271 252 245 248 242 231
74 102 126 143 161 168 152 138 146 152 152 154 153 144 168 163 236 218 307 303 303 21 40 40 11 15 26 54 26 1 339 13 16 20 28 5 22 39 12 354 352 252 12 93 76 154 171 158 104 96 99 201 199 172 137 149 188 229 243 236 277 292 264 247 252 221 256 280 89 91 280 237 246 261 267 272 267 245 230 240 262 278 283 279 266 256 251 243
63 85 112 112 128 128 124 137 146 149 150 150 149 70 86 172 220 177 308 305 353 25 38 29 3 357 314 268 33 1 295 351 7 25 57 287 51 69 48 28 316 284 7 57 310 276 161 134 144 177 166 186 223 223 208 175 176 207 222 250 279 297 307 266 260 277 279 289 122 121 308 263 260 265 258 259 265 265 256 249 256 269 276 279 280 273 260 249
69 87 104 98 102 106 111 129 140 145 150 149 141 76 107 233 224 153 251 272 5 26 98 31 309 222 360 34 16 329 241 131 357 335 287 254 205 116 144 129 264 280 95 133 326 337 282 198 166 182 151 154 208 245 329 65 139 165 37 345 268 252 277 274 269 274 293 314 206 156 240 252 256 301 247 247 270 285 280 260 257 265 264 271 283 277 263 250
79 87 91 86 86 91 101 123 135 145 155 139 76 94 170 237 206 191 223 171 153 161 132 147 263 196 99 64 49 326 273 113 28 326 318 344 307 138 118 118 144 228 208 212 137 111 271 259 112 98 62 159 196 197 356 15 148 126 77 268 244 226 245 263 339 334 316 315 265 199 239 243 258 298 281 256 261 263 267 262 254 263 259 252 269 266 256 253
75 80 78 70 65 72 93 118 129 141 150 126 88 132 207 244 196 191 185 91 140 155 152 178 244 223 209 211 124 123 159 319 348 318 300 31 246 204 180 203 158 199 272 308 189 178 273 272 109 110 169 126 24 84 305 300 267 141 196 219 115 36 295 187 79 70 132 272 267 224 266 269 288 293 276 241 256 257 265 266 253 261 268 254 260 264 260 263
63 72 65 47 43 63 90 102 115 118 107 97 124 200 244 260 209 191 137 85 112 136 157 188 305 326 215 238 228 156 235 289 316 316 262 158 211 177 182 203 165 210 286 318 248 216 288 277 145 150 169 104 33 278 128 347 317 224 212 142 112 107 310 186 258 257 191 255 267 230 273 282 294 289 258 154 236 254 258 268 266 265 267 259 259 265 271 272
46 76 61 30 24 53 83 77 92 100 87 63 98 205 234 180 152 168 161 146 82 155 178 201 231 359 222 237 213 180 324 312 152 329 268 231 204 161 167 174 154 211 326 300 266 160 264 275 145 130 196 102 116 237 209 109 19 308 251 110 113 250 227 158 254 273 252 268 274 248 275 277 245 237 252 237 238 253 262 268 274 271 262 263 268 270 279 283
23 106 56 13 8 39 57 53 91 87 93 133 164 186 197 180 153 139 178 197 203 170 186 211 291 326 198 206 229 176 301 312 116 321 237 215 200 170 170 167 163 167 340 262 249 128 184 277 280 134 241 43 165 221 225 168 120 88 183 149 41 290 269 258 275 298 271 275 286 287 287 267 238 201 224 263 263 259 258 252 254 261 257 256 265 271 281 286
54 139 31 356 8 61 48 52 74 62 67 174 201 158 150 190 158 109 49 308 244 185 220 182 173 209 199 205 274 198 163 261 224 244 226 203 238 198 182 180 156 149 153 257 259 206 164 249 273 144 157 250 217 195 226 212 150 165 195 184 168 138 302 277 228 172 264 269 276 284 276 269 257 163 192 253 268 256 244 243 249 255 257 256 258 263 270 274
87 151 347 349 4 113 61 56 53 37 83 104 146 146 162 180 140 119 80 357 338 348 342 198 176 195 188 188 232 189 180 229 210 236 234 204 231 215 171 174 157 147 160 185 211 227 182 218 267 228 213 234 218 96 10 335 15 206 213 198 189 166 161 249 249 199 211 255 250 263 284 275 262 122 198 246 251 248 238 238 251 258 264 266 264 262 261 264
81 167 348 355 28 136 79 63 38 3 127 110 68 122 146 142 128 130 136 133 295 275 131 239 175 186 194 177 167 177 199 223 192 213 237 212 226 256 95 136 146 146 159 161 180 236 220 249 258 254 247 236 89 68 42 358 357 280 269 223 174 162 192 232 252 224 167 215 268 82 275 273 235 121 189 231 219 241 243 236 255 267 269 270 277 277 270 262
83 166 16 15 65 105 73 86 231 15 73 33 11 63 33 107 126 129 165 184 206 193 195 228 204 207 219 184 157 181 202 220 196 195 230 223 222 350 78 150 145 152 185 211 166 170 188 229 251 269 262 189 99 100 113 50 330 233 238 192 178 183 198 233 259 307 195 199 191 157 244 262 284 111 170 214 194 273 273 243 245 259 268 271 277 280 277 269
74 169 17 14 22 116 102 147 170 144 130 137 110 106 33 181 156 161 194 199 195 187 193 203 206 203 145 111 170 186 192 216 217 207 221 219 196 49 76 178 171 175 196 212 160 168 195 212 215 291 297 282 146 156 155 158 206 236 236 177 188 138 88 77 167 108 263 219 200 221 256 257 251 109 144 158 167 245 258 245 242 253 265 273 276 276 275 275
109 134 313 9 29 56 140 200 147 142 149 154 144 150 170 180 180 199 206 185 182 206 201 165 191 131 105 109 148 178 201 234 247 232 42 245 233 62 63 201 209 205 190 5 354 193 222 232 196 251 288 278 279 302 321 307 170 215 208 176 197 169 145 192 216 188 245 218 189 214 250 262 266 245 246 260 254 268 276 270 266 263 260 263 269 273 275 278
164 88 251 355 32 56 73 357 98 127 149 169 149 158 190 182 160 192 214 187 166 162 155 98 146 139 126 172 211 216 214 216 273 323 263 239 241 62 63 230 268 273 140 85 35 200 227 260 227 237 245 246 265 297 65 78 268 258 230 187 188 190 184 187 206 224 231 196 213 231 240 268 279 276 279 286 283 286 290 290 292 288 279 275 272 275 278 277
204 127 144 180 50 64 73 46 92 110 149 187 163 159 182 183 150 146 195 224 162 156 204 161 168 193 179 173 209 226 199 183 199 253 235 225 238 51 107 180 224 234 185 138 63 169 191 249 229 232 243 248 269 293 2 245 269 267 260 230 196 180 179 185 214 230 212 113 262 247 217 245 270 276 282 284 285 289 292 295 297 295 294 292 285 282 281 278
147 130 80 7 127 146 91 105 139 100 103 124 67 166 174 176 189 187 180 189 182 207 216 199 206 216 199 170 186 197 177 196 211 212 216 226 221 177 169 177 192 211 191 174 227 177 219 262 220 215 255 260 266 277 275 265 262 261 261 254 230 190 180 199 225 233 214 222 257 265 245 247 265 279 285 282 285 294 297 295 293 291 289 285 281 280 279 278
79 108 70 354 25 132 70 50 123 118 106 83 98 190 184 192 203 201 137 137 209 217 212 226 228 212 197 187 188 193 193 202 226 226 202 182 193 191 201 202 175 181 190 180 182 182 212 250 138 134 279 278 262 255 259 259 266 269 260 251 241 222 207 210 231 238 231 239 254 266 273 271 272 275 278 282 288 294 293 289 283 279 276 274 275 277 276 275
169 157 142 65 76 102 57 72 127 127 104 57 244 193 185 203 204 195 167 186 200 176 187 226 234 186 190 196 199 222 219 201 231 235 177 173 208 203 214 214 148 157 197 186 168 194 215 248 110 116 287 287 269 220 244 245 260 275 271 252 232 227 224 223 235 241 239 246 254 262 272 276 273 269 271 278 286 286 280 278 276 272 269 270 274 274 271 272
104 123 141 124 99 107 268 116 107 158 166 189 214 180 190 213 200 182 196 210 209 168 184 207 191 137 176 199 212 233 232 206 230 228 170 187 225 199 203 194 140 152 185 190 160 172 199 248 108 121 275 279 84 70 306 285 272 269 272 262 233 216 218 220 224 224 221 233 250 266 268 263 265 273 275 269 269 270 269 271 275 275 270 268 272 273 272 273
110 89 121 107 85 256 256 115 119 244 216 203 196 174 188 221 184 181 202 210 203 193 201 196 163 146 182 202 220 239 240 204 251 280 175 219 265 249 222 193 163 161 168 173 175 161 189 222 169 145 261 266 71 21 321 316 297 271 264 263 232 204 203 213 224 225 215 214 228 238 239 251 276 301 290 277 270 269 271 273 278 284 287 283 276 274 276 277